San Jose, Costa Rica

4:26 PM CST on September 24, 2017 (GMT -0600)
Juan Santamaria International

Weather History for MROC - November, 2014

Change the Weather History Date:

Sunday, November 9, 2014

  Actual Average Record
Temperature  
Mean Temperature 74 °F -  
Max Temperature 82 °F 78 °F 86 °F (2015)
Min Temperature 66 °F 64 °F 62 °F (2006)
Cooling Degree Days 9    
Growing Degree Days 24 (Base 50)    
Moisture  
Dew Point 64 °F    
Average Humidity 78    
Maximum Humidity 94    
Minimum Humidity 53    
Precipitation  
Precipitation 0.04 in 0.14 in - ()
Sea Level Pressure  
Sea Level Pressure 29.97 in    
Wind  
Wind Speed 6 mph ()    
Max Wind Speed 13 mph    
Max Gust Speed -    
Visibility 6.6 miles    
Events Fog , Rain    
Averages and records for this station are not official NWS values.
T = Trace of Precipitation, MM = Missing Value Source: Averaged Metar Reports

Daily Weather History Graph

Daily Weather History Graph

Search for Another Location

Airport or City:

Trip Planner

Search our weather history database for the weather conditions in past years. The results will help you decide how hot, cold, wet, or windy it might be!

Date:

Astronomy

Nov. 09, 2014 Rise Set
Actual Time 5:29 AM CST 5:11 PM CST
Civil Twilight 5:07 AM CST 5:33 PM CST
Nautical Twilight 4:42 AM CST 5:59 PM CST
Astronomical Twilight 4:16 AM CST 6:24 PM CST
Moon 7:52 PM CST (11/9) 7:52 AM CST (11/9)
Length of Visible Light 12h 26m
Length of Day
11h 42m
Waning Gibbous, 91% of the Moon is Illuminated
Nov 9
Waning Gibbous
Nov 14
Last Quarter
Nov 22
New
Nov 29
First Quarter
Dec 6
Full

Hourly Weather History & Observations

Time (CST) Temp. Heat Index Dew Point Humidity Pressure Visibility Wind Dir Wind Speed Gust Speed Precip Events Conditions
12:00 AM 68 °F - 62 °F 75% 29.85 in 12 mi ENE 9.2 mph - -   Scattered Clouds
12:00 AM 68.0 °F - 62.6 °F 83% 30.01 in 6.2 mi ENE 9.2 mph - N/A   Mostly Cloudy
1:00 AM 68.0 °F - 60.8 °F 78% 29.98 in 6.2 mi East 10.4 mph - N/A   Mostly Cloudy
2:00 AM 68.0 °F - 60.8 °F 78% 29.97 in 6.2 mi East 12.7 mph - N/A   Mostly Cloudy
3:00 AM 69 °F - 61 °F 70% 29.83 in 12 mi East 6.9 mph - -   Overcast
3:00 AM 68.0 °F - 60.8 °F 78% 29.96 in 6.2 mi East 6.9 mph - N/A   Mostly Cloudy
4:00 AM 68.0 °F - 60.8 °F 78% 29.97 in 6.2 mi East 4.6 mph - N/A   Mostly Cloudy
5:00 AM 68.0 °F - 62.6 °F 83% 29.99 in 6.2 mi NE 5.8 mph - N/A   Mostly Cloudy
6:00 AM 68 °F - 62 °F 77% 29.91 in 12 mi East 4.6 mph - -   Overcast
6:00 AM 68.0 °F - 62.6 °F 83% 30.02 in 6.2 mi East 4.6 mph - N/A   Mostly Cloudy
7:00 AM 69.8 °F - 62.6 °F 78% 30.02 in 6.2 mi North 3.5 mph - N/A   Mostly Cloudy
8:00 AM 73.4 °F - 62.6 °F 69% 30.04 in 6.2 mi NE 4.6 mph - N/A   Mostly Cloudy
9:00 AM 76 °F - 62 °F 53% 29.91 in 12 mi East 4.6 mph - -   Overcast
9:00 AM 75.2 °F - 62.6 °F 65% 30.05 in - East 5.8 mph - N/A   Clear
10:00 AM 77.0 °F - 62.6 °F 61% 30.04 in 6.2 mi East 8.1 mph - N/A   Mostly Cloudy
11:00 AM 80.6 °F 82.3 °F 64.4 °F 58% 30.01 in 6.2 mi East 5.8 mph - N/A   Mostly Cloudy
11:35 AM 80.6 °F 83.2 °F 68.0 °F 65% 30.00 in 6.2 mi SW 10.4 mph - N/A   Mostly Cloudy
12:00 PM 78 °F - 68 °F 64% 29.85 in 12 mi SW 10.4 mph - -   Partly Cloudy
12:00 PM 78.8 °F - 68.0 °F 69% 29.99 in 6.2 mi SW 10.4 mph - N/A   Scattered Clouds
1:00 PM 73.4 °F - 68.0 °F 83% 29.98 in 6.2 mi WSW 11.5 mph - N/A Rain Rain
2:00 PM 69.8 °F - 68.0 °F 94% 29.96 in 6.2 mi SW 9.2 mph - N/A   Mostly Cloudy
3:00 PM 69 °F - 67 °F 91% 29.85 in 3 mi WSW 6.9 mph - - Fog Partial Fog
3:00 PM 68.0 °F - 66.2 °F 94% 29.97 in 3.1 mi WSW 6.9 mph - N/A   Mostly Cloudy
3:32 PM 68.0 °F - 66.2 °F 94% 29.97 in 3.1 mi West 6.9 mph - N/A Rain Light Rain
4:00 PM 68.0 °F - 66.2 °F 94% 29.97 in 3.1 mi WNW 4.6 mph - N/A   Mostly Cloudy
5:00 PM 68.0 °F - 66.2 °F 94% 29.98 in 5.0 mi WSW 3.5 mph - N/A Fog Fog
6:00 PM 68 °F - 66 °F 92% 29.88 in 5 mi Calm Calm - - Fog Light Fog
6:00 PM 68.0 °F - - N/A% 29.99 in 5.0 mi Calm Calm - N/A Fog Mostly Cloudy
7:00 PM 68.0 °F - 62.6 °F 83% 30.02 in 6.2 mi East 6.9 mph - N/A   Mostly Cloudy
8:00 PM 68.0 °F - 59.0 °F 73% 30.05 in 6.2 mi East 4.6 mph - N/A   Mostly Cloudy
9:00 PM 66 °F - 61 °F 79% 29.94 in 6 mi ENE 5.8 mph - - Rain Light Rain
9:00 PM 66.2 °F - 60.8 °F 83% 30.06 in 6.2 mi ENE 5.8 mph - N/A   Light Drizzle
10:00 PM 66.2 °F - 60.8 °F 83% 30.06 in - East 4.6 mph - N/A   Clear
11:00 PM 66.2 °F - 60.8 °F 83% 30.04 in - East 3.5 mph - N/A   Clear